{"data":{"norad_id":50817,"epoch":"2026-05-24T13:24:27.439488Z","epoch_age_seconds":109583,"freshness":"FRESH","line1":"1 50817U 22001Q   26144.55865092 -.00000090  00000+0  12451-4 0  9999","line2":"2 50817  53.2140 188.5315 0001159  78.1206 281.9916 15.08833187241860","mean_motion":15.08833187,"eccentricity":0.0001159,"inclination_deg":53.214,"raan_deg":188.5315,"arg_perigee_deg":78.1206,"mean_anomaly_deg":281.9916,"bstar":1.2451e-5,"rev_number":24186,"period_min":95.437985617425,"perigee_km":538.96242890722,"apogee_km":540.56599840854,"semimajor_km":6917.9012136579,"source":"CELESTRAK","updated_at":"2026-05-25T13:38:16.876661Z"}}